Location: Newark
(12.4436°N, 0.6167°W)
Time: 06:49:12
(UTC+00:00)

Transit 2A - Pass Details

Date: 09 December 2019
Orbit: 601 x 957 km, 66.7° (Epoch: 20 January)

Event Time Altitude Azimuth Distance (km) Brightness Sun altitude
Rises 16:14:03 0° 7° (N) 2,959 8.7 17.4°
Reaches altitude 10° 16:17:03 10° 28° (NNE) 2,105 7.9 16.8°
Maximum altitude 16:20:03 17° 68° (ENE) 1,766 7.4 16.1°
Drops below altitude 10° 16:23:14 10° 107° (ESE) 2,242 8.1 15.4°
Sets 16:26:33 0° 127° (SE) 3,247 9.0 14.7°
